Weather observations for the past three days for
Lanai City, Lanai Airport
Imperial (Metric)
Date Time (hst) Wind (mph) Vis. (mi.) Weather Sky Cond. Temperature (ºF) Relative Humidity Wind Chill (°F) Heat Index (°F) Pressure Precipitation (in)
Air Dwpt 6 hour altimeter (in) sea level (mb) 1 hr 3 hr 6 hr
Max. Min.
22 19:56 NE 24 G 35 10.00 Fair and Breezy CLR 71.1 66 82 71.1 84% 30.07 1016.1
22 18:56 NE 26 G 32 10.00 Fair and Windy CLR 72 66 82% 30.05 1015.6
22 17:56 NE 26 G 36 10.00 Fair and Windy CLR 75 66.9 76% 76 30.03 1014.8
22 16:56 NE 21 G 32 10.00 Fair and Breezy CLR 77 66.9 71% 79 30.04 1015.3
22 15:56 NE 28 G 39 10.00 Fair and Windy CLR 78.1 64.9 64% 80 30.04 1015.1
22 14:56 NE 26 G 31 10.00 Fair and Windy CLR 80.1 66.9 64% 82 30.07 1016.0
22 13:56 NE 17 10.00 Mostly Cloudy SCT031 BKN042 81 66 82 75.9 61% 83 30.09 1016.8
22 12:56 NE 18 G 28 10.00 A Few Clouds FEW029 81 66 61% 83 30.1 1017.0
22 11:56 NE 18 10.00 A Few Clouds FEW032 81 66 61% 83 30.13 1018.1
22 10:56 NE 18 10.00 Mostly Cloudy FEW027 BKN032 80.1 66 62% 82 30.14 1018.4
22 09:56 NE 18 10.00 Overcast BKN026 OVC033 75.9 66 72% 77 30.14 1018.6
22 08:56 E 13 G 23 10.00 A Few Clouds FEW025 77 66 69% 79 30.14 1018.6
22 07:56 NE 14 G 17 10.00 A Few Clouds FEW018 75 66.9 75 64.9 76% 76 30.14 1018.5
22 06:56 NE 10 10.00 Fair CLR 71.1 66 84% 30.13 1018.2
22 05:56 NE 9 10.00 Fair CLR 66.9 64 91% 30.11 1017.7
22 04:56 NE 5 10.00 Fair CLR 66.9 64 91% 30.11 1017.5
22 03:56 NE 6 10.00 Fair CLR 66 63 90% 30.11 1017.7
22 02:56 NE 6 10.00 A Few Clouds FEW020 66 64 93% 30.12 1017.8
22 01:56 NE 7 10.00 Fair CLR 70 64.9 72 68 84% 30.13 1018.1
22 00:56 N 3 10.00 Partly Cloudy SCT021 70 66 87% 30.14 1018.6
21 23:56 NE 5 10.00 A Few Clouds FEW021 69.1 66 90% 30.16 1019.4
21 22:56 N 6 10.00 Fair CLR 70 66 87% 30.18 1019.8
21 21:56 Vrbl 3 10.00 Fair CLR 71.1 66 84% 30.17 1019.6
21 20:56 NE 8 10.00 Fair CLR 71.1 66 84% 30.16 1019.3
21 19:56 NE 3 10.00 Fair CLR 72 66 81 72 82% 30.15 1018.8
21 18:56 W 8 10.00 Overcast SCT012 OVC029 73.9 69.1 85% 30.13 1018.4
21 17:56 W 10 10.00 Overcast BKN017 OVC026 77 69.1 77% 79 30.12 1017.7
21 16:56 S 9 10.00 Partly Cloudy SCT035 80.1 66 62% 82 30.11 1017.4
21 15:56 SW 10 10.00 A Few Clouds FEW013 80.1 69.1 69% 83 30.11 1017.4
21 14:56 W 8 10.00 Fair CLR 77 69.1 77% 79 30.12 1017.7
21 13:56 W 9 10.00 Fair CLR 80.1 68 80.1 75 67% 83 30.13 1018.1
21 12:56 W 9 10.00 Fair CLR 78.1 66.9 69% 80 30.14 1018.6
21 11:56 W 9 10.00 Overcast BKN027 OVC035 77 66 69% 79 30.15 1018.8
21 10:56 W 8 10.00 Overcast BKN023 OVC029 77 66 69% 79 30.16 1019.2
21 09:56 SW 5 10.00 Overcast OVC021 75.9 66.9 74% 77 30.16 1019.3
21 08:56 W 5 10.00 Overcast OVC023 75 66 74% 76 30.16 1019.1
21 07:56 Calm 9.00 A Few Clouds FEW001 75 68 75 66 79% 76 30.15 1018.8
21 06:56 E 6 10.00 Fair CLR 69.1 66 90% 30.14 1018.5
21 05:56 E 8 10.00 Fair CLR 68 64.9 90% 30.12 1017.9
21 04:56 N 12 10.00 Fair CLR 70 66.9 90% 30.11 1017.4
21 03:56 NE 6 10.00 Fair CLR 68 66 93% 30.11 1017.7
21 02:56 N 6 10.00 Mostly Cloudy BKN019 70 66.9 90% 30.11 1017.6
21 01:56 N 5 10.00 Fair CLR 66.9 64.9 73 64.9 93% 30.12 1017.8
21 00:56 E 5 10.00 Fair CLR 68 66 93% 30.13 1018.2
20 23:56 N 7 10.00 Fair CLR 71.1 66.9 87% 30.14 1018.4
20 22:56 NE 5 10.00 Partly Cloudy SCT034 69.1 66 90% 30.15 1018.7
20 21:56 E 3 10.00 Fair CLR 71.1 66.9 87% 30.14 1018.6
20 20:56 E 5 10.00 Overcast OVC014 72 68 87% 30.14 1018.3
20 19:56 E 6 10.00 Fair CLR 72 66.9 81 72 84% 30.12 1017.9
20 18:56 NE 12 10.00 Fair CLR 73.9 66.9 79% 30.1 1017.2
20 17:56 NE 18 10.00 Fair CLR 77 68 74% 79 30.08 1016.4
20 16:56 NE 13 G 17 10.00 Overcast OVC026 77 68 74% 79 30.08 1016.4
20 15:56 NW 7 10.00 Overcast OVC024 77 68 74% 79 30.08 1016.6
20 14:56 Calm 10.00 Overcast SCT020 BKN026 OVC033 78.1 68 71% 80 30.08 1016.5
20 13:56 Calm 10.00 Overcast BKN024 OVC030 79 68 82 73.9 69% 81 30.09 1016.7
20 12:56 SW 9 10.00 Overcast FEW021 OVC030 78.1 68 71% 80 30.1 1017.1
20 11:56 NW 7 10.00 Overcast OVC032 77 68 74% 79 30.11 1017.4
20 10:56 S 12 10.00 A Few Clouds FEW030 82 66 58% 84 30.11 1017.4
20 09:56 SW 7 10.00 Overcast OVC060 78.1 68 71% 80 30.12 1017.8
20 08:56 SW 8 10.00 Mostly Cloudy BKN065 77 68 74% 79 30.13 1018.0
20 07:56 NW 5 10.00 Fair CLR 73.9 66.9 73.9 66 79% 30.12 1018.0
20 06:56 Calm 10.00 Fair CLR 70 66.9 90% 30.11 1017.6
20 05:56 E 5 10.00 Partly Cloudy SCT070 66 64 93% 30.1 1017.3
20 04:56 E 5 10.00 A Few Clouds FEW070 66.9 64 91% 30.09 1017.0
20 03:56 E 3 10.00 Fair CLR 68 64.9 90% 30.09 1016.7
20 02:56 E 7 10.00 Fair CLR 68 64.9 90% 30.09 1016.7
20 01:56 NE 7 10.00 Fair CLR 68 64.9 71.1 68 90% 30.1 1017.2
20 00:56 NE 8 10.00 Fair CLR 70 66 87% 30.12 1017.9
19 23:56 NE 17 10.00 Fair CLR 71.1 66.9 87% 30.13 1018.1
19 22:56 NE 18 G 24 10.00 Fair CLR 71.1 66 84% 30.13 1018.2
19 21:56 NE 16 10.00 Fair CLR 71.1 64.9 81% 30.12 1017.9
19 20:56 NE 17 10.00 Fair CLR 71.1 64.9 81% 30.11 1017.5
Date Time (hst) Wind (mph) Vis. (mi.) Weather Sky Cond. Air Dwpt Max. Min. Relative Humidity Wind Chill (°F) Heat Index (°F) altimeter (in) sea level (mb) 1 hr 3 hr 6 hr
6 hour
Temperature (ºF) Pressure Precipitation (in)